Hourly Data Report for October 30, 2016

All times are specified in Local Standard Time (LST). Add 1 hour to adjust for Daylight Saving Time where and when it is observed.

FREDERICTON
NEW BRUNSWICK

45°52'08.000" N
66°32'14.000" W
20.70 m
8101505
71700
YFC

Download Data

Hourly Data (October 2016)
Hourly Data Report for October 30, 2016
Temp Definition
°C
Dew Point Temp Definition
°C
Rel Hum Definition
%
Wind Dir Definition
10's deg

Wind Spd Definition
km/h
Visibility Definition
km
Stn Press Definition
kPa
Hmdx Definition


Wind Chill Definition


Weather Definition


TIME
00:00 Legend Double Dagger 6.2 6.1 99 17 4 16.1 100.32     Rain
01:00 Legend Double Dagger 6.1 6.0 99 22 5 4.8 100.27     Fog
02:00 Legend Double Dagger 6.0 5.9 99 19 5 9.7 100.19     Fog
03:00 Legend Double Dagger 6.0 5.9 99 22 8 16.1 100.17     LegendNANA
04:00 Legend Double Dagger 6.1 5.8 98 24 5 16.1 100.19     LegendNANA
05:00 Legend Double Dagger 6.1 5.4 95 29 9 16.1 100.20     LegendNANA
06:00 Legend Double Dagger 5.9 5.2 95 28 11 16.1 100.24     LegendNANA
07:00 Legend Double Dagger 5.7 4.8 94 30 15 16.1 100.26     LegendNANA
08:00 Legend Double Dagger 5.7 4.4 91 28 9 16.1 100.34     LegendNANA
09:00 Legend Double Dagger 6.6 4.8 89 29 18 16.1 100.36     LegendNANA
10:00 Legend Double Dagger 6.8 4.5 85 28 21 16.1 100.38     LegendNANA
11:00 Legend Double Dagger 7.2 4.5 83 28 21 16.1 100.40     LegendNANA
12:00 Legend Double Dagger 7.8 4.8 81 29 15 16.1 100.41     LegendNANA
13:00 Legend Double Dagger 9.0 5.5 79 31 17 16.1 100.43     LegendNANA
14:00 Legend Double Dagger 8.7 5.3 79 29 21 16.1 100.50     LegendNANA
15:00 Legend Double Dagger 8.7 5.3 79 26 11 16.1 100.54     LegendNANA
16:00 Legend Double Dagger 7.8 5.3 84 30 15 16.1 100.60     LegendNANA
17:00 Legend Double Dagger 7.4 5.3 86 31 15 16.1 100.65     LegendNANA
18:00 Legend Double Dagger 6.9 4.9 87 28 9 16.1 100.70     LegendNANA
19:00 Legend Double Dagger 6.7 4.5 86 LegendMM 4 16.1 100.75     LegendNANA
20:00 Legend Double Dagger 6.5 4.5 87 28 5 16.1 100.78     LegendNANA
21:00 Legend Double Dagger 6.4 4.5 88 30 9 16.1 100.79     LegendNANA
22:00 Legend Double Dagger 6.4 4.6 88 24 5 16.1 100.84     LegendNANA
23:00 Legend Double Dagger 6.3 4.5 88 27 5 16.1 100.83     LegendNANA

Notes on Data Quality.

Legend

  • E = Estimated
  • M = Missing
  • NA = Not Available
  • ‡ = Partner data that is not subject to review by the National Climate Archives
Date modified: